Location: De Greiden
(52.9496°N, 5.9137°E)
Time: 22:46:09
(UTC+00:00)

Cosmos 1340 - Pass Details

Date: 24 January 2021
Orbit: 500 x 504 km, 81.2° (Epoch: 01 March)

Event Time Altitude Azimuth Distance (km) Brightness Sun altitude
Rises 17:48:34 0° 171° (S) 2,586 6.3 -15.1°
Reaches altitude 10° 17:50:46 10° 163° (SSE) 1,707 5.3 -15.4°
Maximum altitude 17:54:14 37° 95° (E) 804 3.1 -15.9°
Enters shadow 17:54:56 33° 69° (ENE) 860 3.2 -16.0°
